www.pogodaiklimat.ru

Погода и климат >> Архив погоды >> Йемен >> Аден


ПОГОДА в Адене

  • Прогноз погоды в Адене
  • Монитор погоды в Адене

АРХИВ ПОГОДЫ в Адене

Время (UTC), дата Ветер
(напр.,м/с)
 
Видим.   Явления Облачность Т
(С)
Тd
(С)
f
(%)
Тe
(С)
Тes
(С)
Комфортность P
(гПа)
Po
(гПа)
Тmin
(С)
Tmax
(С)
R
(мм)
R24
(мм)
S
(см)
03 12.02 З 6 10 км 3/0
[Ci fib]
+10.9 +6.7 75 +8 +8 1018.6 1018.2
09 12.02 В 1 10 км 4/0
[]
-3.7 -4.2 96 -5 +14 813.0
12 12.02 штиль 0 40 км 4/4 1000 м
[]
+1.0 -2.2 79 0 +7 812.7
15 12.02 С 1 10 км ясно +0.1 -6.3 62 0 0 812.7
18 12.02 С 1 10 км ясно -9.3 -10.0 95 -10 -10 813.1 +1.2
21 12.02 З 3 10 км ясно +10.1 +6.4 78 +8 +8 1023.5 1023.1 +0.9 +18.9
00 13.02 З 3 10 км ясно +8.8 +6.1 83 +7 +7 1023.8 1023.4
03 13.02 ЮЗ 3 10 км ясно +7.8 +5.2 84 +5 +5 1024.9 1024.5
06 13.02 З 2 10 км ясно +12.6 +7.6 72 +12 +20 1026.2 1025.8
09 13.02 СЗ 2 7000 м сильн. снег 6/0
[]
+17.2 +5.4 46
12 13.02 З 50 40 км 4/0 1000 м
[Ac lent]
-2.0 -3.9 87 -17 -17 816.0
15 13.02 С 1 10 км 4/0
[Ac trans]
-0.1 -5.7 66 -0 -0 816.2
18 13.02 Ю 3 10 км ясно +12.2 -8.1 23 +12 +12 1023.0 1022.6
21 13.02 штиль 0 10 км 5/0
[Ac trans]
-9.8 -10.6 94 -10 -10 814.7
03 14.02 штиль 0 5000 м дымка 4/0
[Ac trans]
+9.7 +6.9 83 +9 +9 1020.9 1000.0
06 14.02 С 1 10 км 4/0
[Ac trans]
-8.5 -9.2 95 -9 -1 813.2 -11.8
09 14.02 ЮВ 5 8000 м мгла 5/0
[Ac trans Ci fib]
+18.7 +7.7 49
12 14.02 Ю 1 10 км 8/0
[Ac lent]
-1.5 -2.0 96 -2 +5 812.7 180
15 14.02 штиль 0 10 км 3/0
[Ac lent]
-0.0 -5.9 64 -1 -1 812.7
18 14.02 штиль 0 10 км 4/0
[Ac trans]
-8.9 -9.6 95 -10 -10 809.0 -0.7
21 14.02 штиль 0 10 км 8/0
[Ac trans]
-9.4 -10.1 95 -10 -10 808.7
00 15.02 Ю 1 4000 м шквал 9/0
[Ac As]
-9.0 -9.7 95 -10 -10 808.7
06 15.02 штиль 0 4000 м {снег} 9/0
[Ac As]
-3.0 -3.4 97 -4 0 807.5 -8.9 2
09 15.02 штиль 0 2000 м слаб. снег 10/0 600 м
[As op]
-0.4 -1.0 96 -2 +3 808.4
15 15.02 штиль 0 10 км {снег} 9/0
[Ac As]
+2.3 -2.4 71 +2 +2 806.8 2
18 15.02 ЮВ 7 6000 м слаб. дождь 9/3
[Cb cap Ac As]
+17.5 +13.7 78 +17 +17 1015.2 1014.8
21 15.02 Ю 4 6000 м дымка 6/3
[Sc diur, vesp Ac As]
+16.4 +13.5 83 +16 +16 1015.3 1014.9 +14.8 +20.7 2
00 16.02 СЗ 3 5000 м дымка 6/3
[Sc diur, vesp Ac As]
+15.7 +13.1 85 +15 +15 1015.3 1014.9
03 16.02 С 2 10 км 4/0
[Ac lent]
-6.5 -7.2 95
06 16.02 С 9 10 км в посл. час дождь 5/3
[Sc diur, vesp Ac As]
+15.1 +5.1 51 +13 +13 1019.2 1018.8
09 16.02 С 2 10 км позёмок 9/0
[Ac trans]
-2.3 -2.9 96 -6 +3 808.9
12 16.02 З 31 40 км 5/0
[Ac trans]
+20.4 -4.8 18 +18 +18 1018.0 1017.6
03 17.02 0 н/о -4.9 -5.8 93
09 17.02 0-7
{7}
н/о +19.6 +3.0 33 1020.8 346
12 17.02 0-9
{11}
н/о +21.1 +2.2 29 +21 +33 комфорт 1018.3 1011.0 251
15 17.02 0 н/о -0.2 -5.8 66 -1 -1 809.5
18 17.02 0 позёмок н/о -5.6 -6.3 95 -7 -7 809.9 -2.6
21 17.02 0-2
{5}
н/о +11.1 +6.4 73 1019.0 +7.5 +21.2
03 18.02 С 2-2
{2}
10 км ясно +8.7 +5.7 81 +7 +7 1018.1 1017.7
06 18.02 З 2-2
{2}
6000 м мгла ясно +15.7 +8.7 63 +16 +26 1018.8 1018.4 172
09 18.02 С 2-6
{6}
10 км ясно +19.8 +3.4 34 +21 +39 комфорт 1017.4 1017.0 342

 

Местоположение метеостанции Аден (Йемен): широта 12.83 долгота 45.03 высота над уровнем моря 3 м.

В архиве по умолчанию представлена погода в Адене за последнюю неделю. Архивные данные за месяц целиком и за предыдущие месяцы, начиная с января 2011 года, Вы можете получить, выбрав интересующий диапазон дат из раскрывающегося списка и нажав кнопку "Ввод!".


*Определитесь, кто Вы:
робот инопланетянин человек

Внимание! Время в таблицах - всемирное. Для получения местного времени необходимо прибавить поправку, которая равна 3 ч.

Смотрите также архив погоды в соседних городах и на ближайших метеорологических станциях:

Погода в Таизе (Йемен) (136 км)
Погода в Дамаре (Йемен) (206 км)
Погода Джибути () (249 км)
Погода в Марибе (Йемен) (291 км)
Погода в Ходейде (Йемен) (308 км)
Погода в Сане (Йемен) (313 км)
Погода в Хадже (Йемен) (368 км)
Погода в Харгейсе (Сомали) (385 км)
Погода в Босасо (Сомали) (483 км)
Погода в Рийяне (Йемен) (496 км)

Пояснения к столбцам:

Ветер - указаны скорость ветра в м/с - средняя за 10 мин, порывы в срок и между сроками (в фигурных скобках) и направление, откуда дует ветер: С - северный, СВ - северо-восточный, В - восточный, ЮВ - юго-восточный, Ю - южный, ЮЗ - юго-западный, З - западный, СЗ - северо-западный.
Видимость - горизонтальная дальность видимости в метрах или километрах. При видимости от 1 до 10 км при отсутствии осадков обычно наблюдается дымка, при ухудшении видимости до 1 км и менее - туман. В сухую погоду видимость может ухудшаться дымом, пылью или мглою.
Явления - указаны атмосферные явления, наблюдавшиеся в срок или в последний час перед сроком; фигурными скобками обозначены явления, наблюдавшиеся между сроками (за 1-3 часа до срока); квадратными скобками обозначены град или гололедные отложения с указанием их диаметра в мм.
Облачность - указаны через наклонную черту общая и нижняя облачность в баллах и высота нижней границы облаков в метрах; квадратными скобками обозначены формы облаков: Ci - перистые, Cs - перисто-слоистые, Cc - перисто-кучевые, Ac - высококучевые, As - высокослоистые, Sc - слоисто-кучевые, Ns - слоисто-дождевые, Cu - кучевые, Cb - кучево-дождевые. Подробнее классификацию облаков см. в Атласе облаков (PDF).
T - Температура воздуха - температура, измеренная на высоте 2 м над землей.
Td - Температура точки росы - температура, при понижении до которой содержащийся в воздухе водяной пар достигнет насыщения.
f - Относительная влажность воздуха - влажноcть воздуха, измеренная на высоте 2 м над землей.
Te - Эффективная температура - температура, которую ощущает одетый по сезону человек в тени. Характеристика душности погоды. При расчете учитывается влияние влажности воздуха и скорости ветра на теплоощущения человека.
Tes - Эффективная температура на солнце - температура, которую ощущает человек, с поправкой на солнечный нагрев. Характеристика знойности погоды. Зависит от высоты солнца над горизонтом, облачности и скорости ветра. Ночью, в пасмурную погоду, а также при ветре 12 м/с и более поправка равна нулю.
P - Атмосферное давление - приведенное к уровню моря атмосферное давление.
Po - Атмосферное давление - измеренное на уровне метеостанции атмосферное давление.
Tmin - Минимальная температура - минимум температуры воздуха на высоте 2 м над землей.
Tmax - Максимальная температура - максимум температуры воздуха на высоте 2 м над землей.
R - Количество осадков - Количество выпавших осадков за период времени, мм. При наведении курсора мыши на число - период времени, за который выпало указанное количество осадков.
R24 - Количество осадков - Количество выпавших осадков за 24 часа, мм.
S - Снежный покров - Высота снежного покрова, см. При наведении курсора мыши на число - состояние снежного покрова и степень покрытия местности в баллах.